�N����,����,�~����,�C��,���x,�C��,����,���ϕ���,�ő�u�ԕ���,�ő厞����,���˗�,�I�_���x,�n�����x,�ő啗���N��,DTYPE
"17/03/25","00:10",0.0,2.6,85.4,1014.7,289.9,1.5,2.1,299.9,0.00,0.4,7.7,"00:09:20",1
"17/03/25","00:20",0.0,2.9,84.9,1014.2,315.8,2.3,3.5,320.7,0.00,0.7,7.7,"00:15:44",1
"17/03/25","00:30",0.0,3.1,83.7,1014.7,322.1,2.3,3.7,328.8,0.00,0.7,7.7,"00:23:52",1
"17/03/25","00:40",0.0,3.2,82.9,1014.2,315.0,2.0,3.4,320.9,0.00,0.6,7.6,"00:30:40",1
"17/03/25","00:50",0.0,3.3,82.2,1014.5,310.1,2.5,4.1,321.4,0.00,0.6,7.6,"00:48:24",1
"17/03/25","01:00",0.0,3.5,81.3,1014.5,291.3,2.0,3.1,317.4,0.00,0.6,7.5,"00:53:12",1
"17/03/25","01:10",0.0,3.7,80.5,1014.7,310.4,2.7,4.8,325.4,0.00,0.7,7.7,"01:04:00",1
"17/03/25","01:20",0.0,3.7,79.9,1014.9,311.9,2.3,3.5,314.8,0.00,0.6,7.5,"01:19:52",1
"17/03/25","01:30",0.0,3.7,79.5,1014.9,299.6,1.8,2.5,305.8,0.00,0.5,7.6,"01:20:24",1
"17/03/25","01:40",0.0,3.5,80.3,1014.7,316.2,2.1,2.6,317.4,0.00,0.5,7.7,"01:36:24",1
"17/03/25","01:50",0.0,3.4,81.7,1014.9,322.0,1.7,2.5,328.7,0.00,0.6,7.7,"01:46:56",1
"17/03/25","02:00",0.0,3.2,82.7,1015.2,310.2,1.7,2.5,320.1,0.00,0.6,7.6,"01:52:16",1
"17/03/25","02:10",0.0,3.2,83.4,1014.9,310.2,1.2,2.4,320.8,0.00,0.7,7.5,"02:00:02",1
"17/03/25","02:20",0.0,3.3,83.4,1014.9,310.4,1.3,1.8,306.4,0.00,0.8,7.7,"02:11:20",1
"17/03/25","02:30",0.0,3.3,83.5,1014.7,259.6,1.1,1.4,299.2,0.00,0.8,7.5,"02:20:02",1
"17/03/25","02:40",0.0,3.4,83.3,1014.2,312.8,2.6,3.5,318.9,0.00,0.9,7.4,"02:39:12",1
"17/03/25","02:50",0.0,3.4,82.6,1013.8,301.4,2.3,3.6,326.5,0.00,0.8,7.6,"02:40:08",1
"17/03/25","03:00",0.0,3.3,82.4,1014.2,308.1,2.5,3.5,317.1,0.00,0.6,7.4,"02:56:24",1
"17/03/25","03:10",0.0,3.2,82.0,1013.8,211.9,0.6,2.2,319.4,0.00,0.5,7.4,"03:00:24",1
"17/03/25","03:20",0.0,3.1,83.1,1013.8,182.0,0.5,1.4,271.8,0.00,0.6,7.3,"03:19:28",1
"17/03/25","03:30",0.0,3.0,83.7,1014.0,312.6,2.0,3.1,333.8,0.00,0.6,7.4,"03:28:32",1
"17/03/25","03:40",0.0,2.9,84.5,1013.8,307.8,2.1,4.2,318.6,0.00,0.6,7.4,"03:37:36",1
"17/03/25","03:50",0.0,2.8,85.0,1013.8,307.7,1.5,2.4,326.0,0.00,0.6,7.1,"03:40:32",1
"17/03/25","04:00",0.0,2.5,85.7,1014.0,303.9,2.0,2.8,320.9,0.00,0.4,7.3,"03:56:32",1
"17/03/25","04:10",0.0,2.1,86.7,1013.8,294.4,1.8,2.2,296.5,0.00,0.2,7.5,"04:08:32",1
"17/03/25","04:20",0.0,2.0,87.6,1013.8,279.3,1.7,2.0,277.8,0.00,0.2,7.2,"04:10:02",1
"17/03/25","04:30",0.0,1.9,88.2,1013.5,292.1,2.1,3.2,318.7,0.00,0.2,7.3,"04:28:40",1
"17/03/25","04:40",0.0,1.8,88.6,1013.3,291.7,2.2,3.1,291.3,0.00,0.2,7.1,"04:37:52",1
"17/03/25","04:50",0.0,1.9,89.0,1013.3,274.8,2.0,3.1,311.1,0.00,0.3,7.1,"04:42:16",1
"17/03/25","05:00",0.0,2.0,88.6,1013.5,282.7,2.2,3.7,321.5,0.00,0.4,7.2,"04:59:20",1
"17/03/25","05:10",0.0,2.1,87.7,1014.0,318.3,3.0,4.3,322.6,0.00,0.3,7.0,"05:01:36",1
"17/03/25","05:20",0.0,1.6,87.6,1013.8,301.7,2.0,3.2,316.7,0.00,-0.2,6.9,"05:10:08",1
"17/03/25","05:30",0.0,1.4,88.2,1013.8,308.1,2.1,3.3,316.7,0.00,-0.3,7.0,"05:26:10",1
"17/03/25","05:40",0.0,1.1,88.9,1013.8,286.0,1.6,2.7,319.8,0.00,-0.5,7.0,"05:30:16",1
"17/03/25","05:50",0.0,0.9,89.5,1013.5,318.1,2.5,3.3,321.4,0.00,-0.6,6.9,"05:46:08",1
"17/03/25","06:00",0.0,0.7,90.0,1013.8,313.4,2.1,2.8,320.3,0.00,-0.7,6.7,"05:52:00",1
"17/03/25","06:10",0.0,0.5,90.7,1014.0,294.4,1.2,2.1,310.9,0.00,-0.8,6.8,"06:01:20",1
"17/03/25","06:20",0.0,0.4,91.7,1014.0,303.6,2.0,2.5,323.7,0.00,-0.8,6.7,"06:13:52",1
"17/03/25","06:30",0.0,0.6,92.3,1014.2,292.8,1.8,2.4,301.5,0.00,-0.5,6.7,"06:24:32",1
"17/03/25","06:40",0.0,0.9,92.5,1014.0,292.9,2.2,4.0,310.4,0.00,-0.1,6.7,"06:37:32",1
"17/03/25","06:50",0.0,1.1,92.3,1014.2,298.9,2.3,4.0,313.8,0.01,0.0,6.8,"06:47:48",1
"17/03/25","07:00",0.0,1.5,91.6,1014.5,281.2,1.7,2.2,273.2,0.02,0.3,6.7,"06:58:00",1
"17/03/25","07:10",0.0,1.9,90.4,1014.5,267.7,0.8,1.9,287.3,0.03,0.5,6.7,"07:02:16",1
"17/03/25","07:20",0.0,2.4,89.3,1014.9,315.8,2.0,3.3,323.3,0.05,0.9,6.7,"07:17:52",1
"17/03/25","07:30",0.0,2.7,88.7,1014.7,306.2,1.6,3.6,320.9,0.06,1.1,6.7,"07:20:32",1
"17/03/25","07:40",0.0,3.3,85.3,1014.9,273.4,1.1,3.1,330.8,0.07,1.1,6.7,"07:39:36",1
"17/03/25","07:50",0.0,4.1,82.0,1015.6,278.5,1.0,2.6,331.3,0.10,1.3,6.9,"07:40:08",1
"17/03/25","08:00",0.0,4.9,75.6,1015.6,278.2,1.0,1.7,307.3,0.12,1.0,6.7,"07:59:12",1
"17/03/25","08:10",0.0,5.1,74.7,1016.1,309.0,1.8,3.1,318.5,0.13,1.0,6.8,"08:04:00",1
"17/03/25","08:20",0.0,5.3,72.8,1016.6,293.6,1.1,2.2,309.3,0.14,0.9,7.0,"08:19:12",1
"17/03/25","08:30",0.0,5.5,73.3,1016.8,298.7,1.8,3.2,325.4,0.14,1.1,7.2,"08:29:04",1
"17/03/25","08:40",0.0,5.6,72.0,1016.8,282.8,1.2,2.0,249.1,0.14,1.0,7.1,"08:36:32",1
"17/03/25","08:50",0.0,5.9,70.9,1016.4,283.4,1.1,2.0,287.5,0.16,1.1,7.3,"08:49:20",1
"17/03/25","09:00",0.0,6.2,70.4,1016.4,290.7,1.8,3.1,330.6,0.19,1.3,7.2,"08:55:44",1
"17/03/25","09:10",0.0,6.7,68.7,1016.6,266.0,1.3,2.4,241.0,0.24,1.4,7.6,"09:02:56",1
"17/03/25","09:20",0.0,7.4,66.9,1016.6,234.9,0.7,1.8,121.8,0.25,1.7,8.0,"09:19:36",1
"17/03/25","09:30",0.0,7.6,70.2,1016.4,202.9,0.7,2.2,317.1,0.26,2.6,7.8,"09:23:20",1
"17/03/25","09:40",0.0,7.8,63.1,1016.4,191.2,1.1,2.4,210.2,0.33,1.3,8.2,"09:31:28",1
"17/03/25","09:50",0.0,8.4,57.5,1016.4,194.2,1.3,2.5,186.8,0.36,0.5,8.3,"09:43:20",1
"17/03/25","10:00",0.0,8.5,57.3,1016.4,217.5,1.3,2.7,207.1,0.36,0.6,8.4,"09:58:00",1
"17/03/25","10:10",0.0,8.7,57.8,1016.1,199.3,1.7,3.2,200.6,0.37,0.9,8.7,"10:01:04",1
"17/03/25","10:20",0.0,9.2,55.9,1015.9,201.2,1.8,3.7,236.2,0.42,0.9,8.9,"10:14:00",1
"17/03/25","10:30",0.0,9.1,55.9,1015.6,267.7,1.3,3.1,322.1,0.39,0.8,8.9,"10:26:08",1
"17/03/25","10:40",0.0,9.1,53.3,1015.6,162.3,1.3,2.9,114.3,0.40,0.1,9.2,"10:36:16",1
"17/03/25","10:50",0.0,10.0,52.2,1015.6,135.1,1.2,3.1,114.2,0.46,0.7,9.3,"10:46:16",1
"17/03/25","11:00",0.0,10.9,50.6,1015.4,292.9,1.1,2.6,353.6,0.53,1.1,9.2,"10:55:12",1
"17/03/25","11:10",0.0,10.3,51.8,1015.2,127.1,1.7,4.1,122.1,0.50,0.9,10.0,"11:05:44",1
"17/03/25","11:20",0.0,11.1,48.3,1015.2,265.8,1.0,2.5,145.4,0.55,0.6,10.0,"11:10:16",1
"17/03/25","11:30",0.0,11.1,51.6,1014.9,172.6,1.7,3.1,157.9,0.48,1.6,10.3,"11:24:40",1
"17/03/25","11:40",0.0,11.1,48.1,1014.5,247.0,1.5,2.8,35.9,0.50,0.6,10.5,"11:32:48",1
"17/03/25","11:50",0.0,11.2,51.3,1014.5,271.5,1.2,3.1,240.5,0.38,1.6,10.8,"11:41:12",1
"17/03/25","12:00",0.0,11.1,46.8,1013.8,141.2,1.2,2.8,117.9,0.45,0.2,10.9,"11:50:48",1
"17/03/25","12:10",0.0,11.3,48.8,1013.5,161.5,1.8,4.4,233.0,0.43,1.0,11.1,"12:08:40",1
"17/03/25","12:20",0.0,11.5,47.1,1013.5,140.8,2.0,4.0,163.3,0.47,0.7,11.2,"12:12:00",1
"17/03/25","12:30",0.0,11.3,47.2,1013.3,219.9,1.6,3.2,262.4,0.41,0.5,11.2,"12:28:40",1
"17/03/25","12:40",0.0,11.7,46.8,1013.3,162.6,1.8,4.3,156.8,0.37,0.8,11.6,"12:35:04",1
"17/03/25","12:50",0.0,11.8,43.4,1013.3,150.6,2.2,4.0,134.7,0.47,-0.2,11.5,"12:41:12",1
"17/03/25","13:00",0.0,12.7,45.4,1013.3,203.0,2.1,3.9,170.0,0.48,1.2,11.7,"12:52:32",1
"17/03/25","13:10",0.0,12.2,43.7,1012.8,103.9,2.1,5.2,104.8,0.50,0.3,11.6,"13:04:00",1
"17/03/25","13:20",0.0,12.3,43.5,1013.0,174.8,2.6,5.2,120.9,0.47,0.3,12.0,"13:10:48",1
"17/03/25","13:30",0.0,12.3,41.5,1012.8,180.4,2.1,3.6,106.9,0.49,-0.4,12.1,"13:21:36",1
"17/03/25","13:40",0.0,12.7,43.3,1012.6,176.6,2.3,4.0,126.6,0.48,0.6,12.2,"13:30:48",1
"17/03/25","13:50",0.0,12.5,42.6,1012.6,164.5,2.2,4.8,110.1,0.48,0.2,12.4,"13:41:52",1
"17/03/25","14:00",0.0,12.3,42.8,1012.6,230.9,2.2,4.7,235.0,0.47,0.1,12.3,"13:52:40",1
"17/03/25","14:10",0.0,12.9,39.8,1012.1,240.9,2.0,6.4,62.8,0.51,-0.4,12.5,"14:08:40",1
"17/03/25","14:20",0.0,12.7,42.4,1011.9,125.7,1.5,3.3,112.8,0.44,0.3,12.6,"14:18:24",1
"17/03/25","14:30",0.0,12.3,40.1,1012.1,48.2,1.3,3.3,327.7,0.36,-0.8,12.6,"14:26:00",1
"17/03/25","14:40",0.0,12.4,40.9,1011.9,358.3,1.0,2.9,340.6,0.29,-0.5,12.7,"14:38:16",1
"17/03/25","14:50",0.0,12.4,41.5,1012.1,230.9,1.7,3.1,208.9,0.27,-0.3,12.7,"14:47:28",1
"17/03/25","15:00",0.0,12.0,40.4,1012.1,221.1,2.2,5.5,192.8,0.22,-1.0,12.7,"14:50:40",1
"17/03/25","15:10",0.0,12.4,38.1,1011.9,224.9,1.7,4.7,204.8,0.24,-1.4,12.7,"15:02:40",1
"17/03/25","15:20",0.0,12.5,39.3,1011.9,232.1,1.3,3.3,236.8,0.26,-0.9,12.6,"15:12:16",1
"17/03/25","15:30",0.0,12.5,37.0,1011.9,274.3,2.0,3.5,236.2,0.25,-1.7,12.7,"15:29:44",1
"17/03/25","15:40",0.0,12.6,36.4,1011.4,232.5,1.7,3.2,236.0,0.27,-1.9,12.7,"15:33:12",1
"17/03/25","15:50",0.0,13.2,35.8,1011.6,269.4,1.1,2.4,236.0,0.25,-1.6,12.5,"15:42:56",1
"17/03/25","16:00",0.0,12.9,36.1,1011.9,35.1,1.1,2.4,110.0,0.21,-1.7,12.7,"15:58:32",1
"17/03/25","16:10",0.0,12.6,38.3,1011.6,175.5,0.8,2.2,154.8,0.16,-1.2,12.6,"16:06:24",1
"17/03/25","16:20",0.0,12.5,35.7,1011.9,151.3,1.0,1.9,128.1,0.14,-2.2,12.5,"16:10:16",1
"17/03/25","16:30",0.0,12.4,36.9,1011.6,142.6,0.6,1.9,114.8,0.12,-1.9,12.6,"16:25:36",1
"17/03/25","16:40",0.0,12.9,37.0,1011.4,281.2,0.7,1.6,326.6,0.12,-1.4,12.4,"16:31:28",1
"17/03/25","16:50",0.0,12.9,38.7,1011.6,109.9,0.8,2.1,127.4,0.12,-0.8,12.4,"16:42:24",1
"17/03/25","17:00",0.0,12.8,36.2,1011.4,103.1,0.3,1.1,111.1,0.10,-1.8,12.3,"16:52:16",1
"17/03/25","17:10",0.0,12.9,34.7,1011.6,303.7,1.0,2.1,341.7,0.08,-2.3,12.2,"17:08:56",1
"17/03/25","17:20",0.0,12.7,36.1,1011.4,321.6,1.1,2.1,320.4,0.06,-1.9,12.2,"17:13:52",1
"17/03/25","17:30",0.0,12.5,36.8,1011.4,287.8,1.1,2.1,274.3,0.05,-1.8,12.2,"17:28:24",1
"17/03/25","17:40",0.0,12.3,36.8,1011.4,298.5,1.2,2.0,317.9,0.03,-2.0,12.2,"17:35:36",1
"17/03/25","17:50",0.0,11.9,39.8,1011.6,275.4,1.3,2.7,318.4,0.02,-1.3,12.0,"17:45:20",1
"17/03/25","18:00",0.0,11.6,43.9,1011.6,288.1,1.3,1.9,299.5,0.01,-0.2,11.8,"17:51:20",1
"17/03/25","18:10",0.0,11.0,46.6,1011.6,336.1,1.3,2.2,323.3,0.00,0.1,11.7,"18:00:02",1
"17/03/25","18:20",0.0,10.3,50.7,1011.6,321.3,1.6,2.9,314.5,0.00,0.6,11.7,"18:16:48",1
"17/03/25","18:30",0.0,9.7,52.7,1011.9,309.3,1.7,2.9,309.0,0.00,0.6,11.4,"18:29:28",1
"17/03/25","18:40",0.0,9.3,55.7,1011.9,306.1,2.0,3.1,328.3,0.00,0.9,11.4,"18:33:20",1
"17/03/25","18:50",0.0,8.8,58.0,1011.6,326.0,2.3,5.0,334.5,0.00,1.0,11.3,"18:49:20",1
"17/03/25","19:00",0.0,8.7,58.5,1011.9,332.6,3.4,5.7,343.3,0.00,1.1,11.3,"18:59:52",1
"17/03/25","19:10",0.0,8.5,59.4,1012.3,335.9,2.8,5.9,341.4,0.00,1.1,11.2,"19:06:48",1
"17/03/25","19:20",0.0,8.2,60.6,1012.6,324.3,2.7,4.2,332.7,0.00,1.1,11.0,"19:14:00",1
"17/03/25","19:30",0.0,8.0,60.8,1012.8,310.2,3.1,4.7,323.5,0.00,0.9,10.7,"19:24:08",1
"17/03/25","19:40",0.0,7.7,61.3,1012.6,301.1,1.8,2.4,298.4,0.00,0.8,10.7,"19:38:08",1
"17/03/25","19:50",0.0,7.5,62.7,1012.6,290.8,2.5,3.6,286.3,0.00,0.9,10.4,"19:44:56",1
"17/03/25","20:00",0.0,7.2,64.1,1012.8,286.8,2.5,3.3,288.7,0.00,0.9,10.4,"19:55:36",1
"17/03/25","20:10",0.0,7.0,65.1,1013.0,287.9,2.7,4.1,307.4,0.00,0.9,10.2,"20:09:36",1
"17/03/25","20:20",0.0,6.7,66.6,1012.8,296.9,2.8,4.1,302.4,0.00,1.0,10.3,"20:12:40",1
"17/03/25","20:30",0.0,6.5,67.6,1013.3,282.7,2.5,3.1,266.0,0.00,1.0,10.0,"20:27:12",1
"17/03/25","20:40",0.0,6.4,68.4,1012.8,281.0,2.7,3.6,294.4,0.00,1.1,9.9,"20:36:00",1
"17/03/25","20:50",0.0,6.2,69.3,1013.0,302.5,4.0,5.4,329.9,0.00,1.0,9.9,"20:47:28",1
"17/03/25","21:00",0.0,6.2,69.7,1012.6,304.8,4.2,5.9,314.0,0.00,1.1,10.0,"20:54:32",1
"17/03/25","21:10",0.0,6.1,69.7,1012.8,304.6,4.4,6.3,322.1,0.00,1.0,9.8,"21:09:22",1
"17/03/25","21:20",0.0,6.0,70.4,1012.8,301.9,3.7,5.9,334.6,0.00,1.1,9.6,"21:13:28",1
"17/03/25","21:30",0.0,5.9,71.1,1012.6,297.3,3.5,5.5,326.5,0.00,1.1,9.5,"21:21:36",1
"17/03/25","21:40",0.0,6.0,71.0,1012.3,302.3,4.4,6.3,332.1,0.00,1.2,9.5,"21:33:12",1
"17/03/25","21:50",0.0,6.0,70.7,1012.6,321.2,4.2,5.5,333.3,0.00,1.1,9.5,"21:43:44",1
"17/03/25","22:00",0.0,5.8,71.8,1012.8,324.0,4.5,5.7,326.9,0.00,1.1,9.4,"21:58:24",1
"17/03/25","22:10",0.0,5.7,72.3,1013.0,325.1,4.5,5.9,340.9,0.00,1.1,9.4,"22:00:32",1
"17/03/25","22:20",0.0,5.4,73.3,1012.8,326.5,3.5,5.2,325.9,0.00,1.1,9.2,"22:13:52",1
"17/03/25","22:30",0.0,5.1,74.7,1012.3,320.9,3.0,4.3,318.6,0.00,1.0,9.2,"22:22:16",1
"17/03/25","22:40",0.0,5.1,75.5,1013.0,325.5,4.1,5.7,313.5,0.00,1.2,9.2,"22:38:32",1
"17/03/25","22:50",0.0,5.2,74.9,1012.8,322.6,4.1,7.1,334.1,0.00,1.2,8.8,"22:49:20",1
"17/03/25","23:00",0.0,5.2,75.1,1012.6,322.9,4.1,6.7,326.4,0.00,1.2,8.8,"22:55:38",1
"17/03/25","23:10",0.0,5.2,75.2,1012.8,313.0,4.4,6.2,325.6,0.00,1.2,8.9,"23:09:12",1
"17/03/25","23:20",0.0,5.0,75.8,1012.8,311.6,4.2,6.0,326.5,0.00,1.1,8.7,"23:18:16",1
"17/03/25","23:30",0.0,5.0,75.6,1012.3,322.3,4.6,6.7,334.1,0.00,1.1,8.7,"23:21:28",1
"17/03/25","23:40",0.0,5.0,75.8,1012.6,322.2,5.1,8.5,315.8,0.00,1.1,8.7,"23:35:44",1
"17/03/25","23:50",0.0,4.9,76.0,1012.6,325.4,4.6,6.3,330.6,0.00,1.1,8.7,"23:44:00",1
"17/03/25","24:00",0.0,4.7,76.7,1012.8,323.4,3.5,6.3,313.8,0.00,1.0,8.6,"23:52:08",1
